Menut

operational
NORAD ID: 55010 Int'l Des: 2023-001 Owner: OCOSB/IEEC Country: E
LEOCIRCULARRETROGRADESSO

About Menut

Description loading...

Live Position

Loading 3D Globe...

Upcoming Passes

Altitude History

Altitude vs Time

uPlot chart will show altitude changes over time

Two-Line Element Set

1 55010U 23001B 26020.16274667 .00087387 00000-0 19196-2 0 9997
2 55010 97.3435 85.2476 0003808 292.8010 67.2835 15.43694950169448
Epoch: Jan 20, 2026 • Age: 15 hours

Current Status

Altitude 439.9 km
Velocity 7.65 km/s
Sub-Earth Point 24.67°N, 129.57°W
Launch Date Jan 3, 2023
Age 3 years
Type other

Technical Details

Classification Payload
Mass 10.00 kg
Dry Mass 10.00 kg
Total Mass 10.00 kg
Length 0.30 m
Diameter 0.20 m
Span 0.30 m
Shape Box+ 2 pan
Manufacturer OCOSB
Bus Type Cubesat 6U
Phase Status In Orbit
Owner/State OCOSB/IEEC/E

Large Constellations

Loading constellations...